Location: Edinburgh
(55.9500°N, 3.1600°W)
Time: 10:15:09
(UTC+01:00)

ISS - Pass Details

Date: 11 October 2017
Orbit: 401 x 408 km, 51.6° (Epoch: 19 October)

Event Time Altitude Azimuth Distance (km) Brightness Sun altitude
Rises 19:10:52 0° 271° (W) 2,326 2.7 -7.7°
Reaches altitude 10° 19:13:09 10° 258° (WSW) 1,466 0.6 -8.0°
Maximum altitude 19:15:57 26° 200° (SSW) 839 -2.0 -8.4°
Drops below altitude 10° 19:18:45 10° 141° (SE) 1,465 -1.4 -8.8°
Enters shadow 19:19:42 - 134° (SE) 1,814 -1.0 -8.9°
